QPF
0.00 0.00 0.00 0.00 0.00 0.00 0.00 0.00 0.00 0.00 0.00 0.00 0.00 0.00 0.00 0.00 0.00 0.00 0.00 0.00 0.00 0.00 0.00 0.00 0.00 0.00 0.00 0.00 0.00 0.00 0.00 0.00 0.00 0.00 0.00 0.00 0.00 0.00 0.00 0.00 0.00 0.00 0.00
0.00 0.00 0.00 0.00 0.00 0.00 0.00 0.00 0.00 0.00 0.00 0.00 0.00 0.00 0.00 0.00 0.00 0.00 0.00 0.00 0.00 0.00 0.00 0.00 0.00 0.00 0.00 0.00 0.00 0.00 0.00 0.00 0.00 0.00 0.00 0.00 0.00 0.00 0.00 0.00 0.00 0.00 0.00
0.00 0.00 0.00 0.00 0.00 0.00 0.00 0.00 0.00 0.00 0.00 0.00 0.00 0.00 0.00 0.00 0.00 0.00 0.00 0.00 0.00 0.00 0.00 0.00 0.00 0.00 0.00 0.00 0.00 0.00 0.00 0.00 0.00 0.00 0.00 0.00 0.00 0.00 0.00 0.00 0.00 0.00 0.00
0.00 0.00 0.00 0.00 0.00 0.00 0.00 0.00 0.00 0.00 0.00 0.00 0.00 0.00 0.00 0.00 0.00 0.00 0.00 0.00 0.00 0.00 0.00 0.00 0.00 0.00 0.00 0.00 0.00 0.00 0.00 0.00 0.00 0.00 0.00 0.00 0.00 0.00 0.00 0.00 0.00 0.00 0.00
0.00 0.00 0.00 0.00 0.00 0.00 0.00 0.00 0.00 0.00 0.00 0.00 0.00 0.00 0.00 0.00 0.00 0.00 0.00 0.00 0.00 0.00 0.00 0.00 0.00 0.00 0.00 0.00 0.00 0.00 0.00 0.00 0.00 0.00 0.00 0.00 0.00 0.00 0.00 0.00 0.00 0.00 0.00
0.00 0.00 0.00 0.00 0.00 0.00 0.00 0.00 0.00 0.00 0.00 0.00 0.00 0.00 0.00 0.00 0.00 0.00 0.00 0.00 0.00 0.00 0.00 0.00 0.00 0.00 0.00 0.00 0.00 0.00 0.00 0.00 0.00 0.00 0.00 0.00 0.00 0.00 0.00 0.00 0.00 0.00 0.00
0.00 0.00 0.00 0.00 0.00 0.00 0.00 0.00 0.00 0.00 0.00 0.00 0.00 0.00 0.00 0.00 0.00 0.00 0.00 0.00 0.00 0.00 0.00 0.00 0.00 0.00 0.00 0.00 0.00 0.00 0.00 0.00 0.00 0.00 0.00 0.00 0.00 0.00 0.01 0.01 0.00 0.00 0.00
0.00 0.00 0.00 0.00 0.00 0.00 0.00 0.00 0.00 0.00 0.00 0.00 0.00 0.00 0.00 0.00 0.00 0.00 0.00 0.00 0.00 0.00 0.00 0.00 0.00 0.00 0.00 0.00 0.00 0.00 0.00 0.00 0.00 0.00 0.01 0.01 0.01 0.00 0.00 0.00 0.00 0.00 0.00
0.00 0.00 0.00 0.00 0.00 0.00 0.00 0.00 0.00 0.00 0.00 0.00 0.00 0.00 0.00 0.00 0.00 0.00 0.00 0.00 0.00 0.00 0.00 0.00 0.00 0.00 0.00 0.00 0.00 0.00 0.00 0.00 0.00 0.00 0.00 0.00 0.00 0.00 0.00 0.00 0.00 0.00 0.00
0.00 0.00 0.00 0.00 0.00 0.00 0.00 0.00 0.00 0.00 0.00 0.00 0.00 0.00 0.00 0.00 0.00 0.00 0.00 0.00 0.00 0.00 0.00 0.00 0.00 0.00 0.00 0.00 0.00 0.00 0.00 0.00 0.00 0.00 0.00 0.00 0.00 0.00 0.00 0.00 0.00 0.00 0.00
0.00 0.00 0.00 0.00 0.00 0.00 0.00 0.00 0.00 0.00 0.00 0.00 0.00 0.00 0.00 0.00 0.00 0.00 0.00 0.00 0.00 0.00 0.00 0.00 0.00 0.00 0.00 0.00 0.00 0.01 0.00 0.00 0.00 0.00 0.00 0.00 0.00 0.00 0.00 0.00 0.00 0.00 0.00
0.00 0.00 0.00 0.00 0.00 0.00 0.00 0.00 0.00 0.00 0.00 0.00 0.00 0.00 0.00 0.00 0.00 0.00 0.00 0.00 0.00 0.00 0.00 0.00 0.00 0.00 0.00 0.00 0.00 0.01 0.01 0.01 0.00 0.00 0.00 0.00 0.00 0.00 0.00 0.00 0.00 0.00 0.00
0.00 0.00 0.00 0.00 0.00 0.00 0.00 0.00 0.00 0.00 0.00 0.00 0.00 0.00 0.00 0.00 0.00 0.00 0.00 0.00 0.00 0.00 0.00 0.00 0.00 0.00 0.00 0.00 0.01 0.01 0.00 0.00 0.00 0.00 0.00 0.00 0.00 0.00 0.00 0.00 0.00 0.00 0.00
0.00 0.00 0.00 0.00 0.00 0.00 0.00 0.00 0.00 0.00 0.00 0.00 0.00 0.00 0.00 0.00 0.00 0.00 0.00 0.00 0.00 0.00 0.00 0.00 0.00 0.00 0.00 0.00 0.01 0.00 0.00 0.00 0.00 0.00 0.00 0.00 0.00 0.00 0.00 0.00 0.00 0.00 0.00
0.00 0.00 0.00 0.00 0.00 0.00 0.00 0.00 0.00 0.00 0.00 0.00 0.00 0.00 0.00 0.00 0.00 0.00 0.00 0.00 0.00 0.00 0.00 0.00 0.00 0.00 0.00 0.00 0.00 0.00 0.00 0.00 0.00 0.00 0.00 0.00 0.00 0.00 0.00 0.00 0.00 0.00 0.00
0.00 0.00 0.00 0.00 0.00 0.00 0.00 0.00 0.00 0.00 0.00 0.01 0.01 0.01 0.01 0.01 0.01 0.01 0.01 0.02 0.02 0.03 0.01 0.01 0.01 0.00 0.00 0.00 0.00 0.00 0.00 0.00 0.00 0.00 0.00 0.00 0.00 0.00 0.00 0.00 0.00 0.00 0.00
0.00 0.00 0.00 0.00 0.00 0.00 0.00 0.00 0.00 0.00 0.00 0.00 0.00 0.00 0.00 0.00 0.00 0.00 0.01 0.00 0.01 0.01 0.02 0.01 0.01 0.00 0.00 0.00 0.00 0.00 0.00 0.00 0.00 0.00 0.00 0.00 0.00 0.00 0.00 0.00 0.00 0.00 0.00
0.00 0.00 0.00 0.00 0.00 0.00 0.00 0.00 0.00 0.00 0.00 0.00 0.00 0.00 0.00 0.00 0.01 0.01 0.01 0.01 0.01 0.01 0.00 0.00 0.00 0.00 0.00 0.00 0.00 0.00 0.00 0.00 0.00 0.00 0.00 0.00 0.00 0.00 0.00 0.00 0.00 0.00 0.00
0.00 0.00 0.00 0.00 0.00 0.00 0.00 0.00 0.00 0.00 0.00 0.00 0.00 0.00 0.00 0.00 0.00 0.00 0.00 0.00 0.00 0.00 0.00 0.00 0.00 0.00 0.00 0.00 0.00 0.00 0.00 0.00 0.00 0.00 0.00 0.00 0.00 0.00 0.00 0.00 0.00 0.00 0.00
0.00 0.00 0.00 0.00 0.00 0.00 0.00 0.00 0.00 0.00 0.00 0.00 0.00 0.00 0.00 0.00 0.00 0.00 0.00 0.00 0.00 0.00 0.00 0.00 0.00 0.00 0.00 0.00 0.00 0.00 0.00 0.00 0.00 0.00 0.00 0.00 0.00 0.00 0.00 0.00 0.00 0.00 0.00
0.00 0.00 0.00 0.00 0.00 0.00 0.00 0.00 0.00 0.00 0.00 0.00 0.00 0.00 0.00 0.01 0.01 0.01 0.00 0.00 0.00 0.00 0.00 0.00 0.00 0.00 0.00 0.00 0.00 0.00 0.00 0.00 0.00 0.00 0.00 0.00 0.00 0.00 0.00 0.00 0.00 0.00 0.00
0.00 0.00 0.00 0.00 0.00 0.00 0.00 0.00 0.00 0.00 0.00 0.00 0.00 0.00 0.00 0.00 0.00 0.00 0.00 0.00 0.00 0.00 0.00 0.00 0.00 0.00 0.00 0.00 0.00 0.00 0.00 0.00 0.00 0.00 0.00 0.00 0.00 0.00 0.00 0.00 0.00 0.00 0.00
0.00 0.00 0.00 0.00 0.00 0.00 0.00 0.00 0.00 0.00 0.00 0.00 0.00 0.00 0.00 0.00 0.00 0.00 0.00 0.00 0.00 0.00 0.00 0.00 0.00 0.00 0.00 0.00 0.00 0.00 0.00 0.00 0.00 0.00 0.00 0.00 0.00 0.00 0.00 0.00 0.00 0.00 0.00
0.00 0.00 0.00 0.00 0.00 0.00 0.00 0.00 0.00 0.00 0.00 0.00 0.00 0.00 0.00 0.00 0.00 0.00 0.00 0.00 0.00 0.00 0.00 0.00 0.00 0.00 0.00 0.00 0.00 0.00 0.00 0.00 0.00 0.00 0.00 0.00 0.00 0.00 0.00 0.00 0.00 0.00 0.00
0.00 0.00 0.00 0.00 0.00 0.00 0.00 0.00 0.00 0.00 0.00 0.00 0.00 0.00 0.00 0.00 0.00 0.00 0.00 0.00 0.00 0.00 0.00 0.00 0.00 0.00 0.00 0.00 0.00 0.00 0.00 0.00 0.00 0.00 0.00 0.00 0.00 0.00 0.00 0.00 0.00 0.00 0.00
0.00 0.00 0.00 0.00 0.00 0.00 0.00 0.00 0.00 0.00 0.00 0.00 0.00 0.00 0.00 0.00 0.00 0.00 0.00 0.00 0.00 0.00 0.00 0.00 0.00 0.00 0.00 0.00 0.00 0.00 0.00 0.00 0.00 0.00 0.00 0.00 0.00 0.00 0.00 0.00 0.00 0.00 0.00
MSLP
1040.64 1040.80 1040.86 1040.93 1040.90 1040.76 1040.72 1040.69 1040.55 1040.32 1040.21 1039.94 1039.72 1039.39 1039.13 1038.84 1038.50 1037.94 1037.48 1037.29 1036.95 1036.68 1036.54 1036.46 1036.27 1036.21 1035.72 1035.31 1035.13 1034.72 1034.29 1033.82 1033.00 1032.05 1031.61 1031.42 1031.04 1030.56 1029.88 1029.25 1028.60 1027.97 1027.14
1041.28 1041.28 1041.37 1041.35 1041.29 1041.24 1041.23 1041.15 1041.00 1040.85 1040.70 1040.52 1040.30 1039.98 1039.73 1039.44 1039.05 1038.62 1038.12 1037.68 1037.36 1037.10 1036.97 1036.82 1036.65 1036.48 1036.00 1035.59 1035.26 1034.83 1034.38 1033.94 1033.45 1032.58 1032.11 1031.46 1031.03 1030.51 1029.95 1029.47 1028.53 1028.08 1027.73
1041.68 1041.62 1041.63 1041.70 1041.71 1041.70 1041.67 1041.52 1041.32 1041.26 1041.06 1040.87 1040.68 1040.52 1040.30 1040.02 1039.56 1039.03 1038.45 1037.98 1037.62 1037.39 1037.28 1037.09 1036.92 1036.64 1036.20 1035.81 1035.37 1034.83 1034.35 1033.90 1033.52 1032.92 1032.13 1031.62 1030.94 1030.36 1029.77 1029.42 1028.96 1028.45 1027.94
1042.12 1042.07 1042.07 1042.14 1042.22 1042.11 1042.02 1041.91 1041.80 1041.65 1041.39 1041.28 1041.17 1041.01 1040.83 1040.52 1039.98 1039.36 1038.60 1038.09 1037.78 1037.53 1037.48 1037.36 1037.13 1036.80 1036.44 1035.94 1035.37 1034.76 1034.33 1034.05 1033.40 1032.73 1031.99 1031.38 1030.94 1030.38 1030.25 1029.60 1028.84 1028.58 1027.93
1042.28 1042.27 1042.31 1042.45 1042.42 1042.40 1042.07 1042.02 1041.93 1041.72 1041.40 1041.37 1041.16 1040.91 1040.71 1040.28 1039.52 1039.11 1038.52 1037.83 1037.74 1037.69 1037.63 1037.55 1037.16 1036.91 1036.60 1036.10 1035.50 1034.96 1034.55 1033.84 1033.16 1032.63 1032.15 1031.54 1031.13 1030.92 1030.55 1030.10 1029.33 1028.58 1027.89
1042.32 1042.27 1042.31 1042.31 1042.22 1042.08 1041.87 1041.84 1041.62 1041.38 1041.19 1041.01 1040.91 1040.78 1040.59 1039.87 1039.33 1038.68 1037.98 1037.49 1037.22 1037.33 1037.32 1037.16 1037.11 1036.75 1036.35 1035.91 1035.48 1035.13 1034.54 1033.82 1033.44 1032.94 1032.52 1031.96 1031.61 1031.22 1030.67 1030.21 1029.76 1029.32 1028.42
1042.20 1042.04 1041.92 1041.81 1041.65 1041.43 1041.32 1041.22 1040.99 1040.73 1040.55 1040.48 1040.26 1040.08 1039.81 1039.49 1038.91 1038.21 1037.58 1037.22 1036.92 1036.96 1037.03 1036.80 1036.50 1036.11 1035.82 1035.82 1035.45 1034.75 1034.18 1033.72 1033.23 1032.89 1032.53 1032.26 1031.66 1031.37 1031.29 1030.88 1030.36 1029.89 1029.20
1041.84 1041.56 1041.40 1041.33 1041.17 1040.94 1040.79 1040.60 1040.29 1040.00 1039.86 1039.64 1039.38 1039.29 1039.05 1038.72 1038.30 1037.83 1037.39 1036.88 1036.48 1036.47 1036.42 1036.33 1036.05 1035.73 1035.52 1035.19 1034.69 1034.14 1033.67 1033.33 1032.88 1032.43 1032.11 1031.89 1031.67 1031.47 1031.35 1030.91 1030.37 1029.78 1029.17
1041.42 1041.13 1040.92 1040.81 1040.65 1040.41 1040.13 1039.81 1039.53 1039.34 1039.13 1038.88 1038.72 1038.59 1038.37 1038.03 1037.71 1037.35 1036.91 1036.48 1035.96 1035.64 1035.48 1035.34 1035.25 1034.98 1034.61 1034.00 1033.43 1033.05 1032.60 1032.27 1031.90 1031.76 1031.96 1031.90 1031.65 1031.37 1031.14 1030.64 1030.12 1029.51 1028.68
1040.68 1040.41 1040.15 1040.08 1039.92 1039.72 1039.51 1039.25 1039.02 1038.92 1038.61 1038.36 1037.97 1037.76 1037.49 1037.11 1036.84 1036.55 1036.37 1036.06 1035.27 1034.76 1034.40 1034.10 1033.86 1033.55 1033.21 1032.63 1032.19 1032.14 1031.73 1031.41 1031.24 1031.69 1031.92 1031.57 1031.27 1031.00 1030.79 1030.55 1030.13 1029.62 1029.13
1039.97 1039.72 1039.53 1039.52 1039.46 1039.30 1039.04 1038.84 1038.54 1038.28 1038.02 1037.74 1037.40 1037.15 1036.94 1036.72 1036.38 1036.01 1035.62 1035.09 1034.54 1033.99 1033.49 1033.06 1032.76 1032.51 1032.12 1031.70 1031.47 1031.18 1030.84 1030.72 1030.97 1031.40 1031.08 1030.66 1030.48 1030.32 1030.10 1029.99 1030.00 1029.84 1029.28
1039.74 1039.47 1039.24 1039.05 1038.96 1038.84 1038.55 1038.20 1037.97 1037.77 1037.41 1037.03 1036.74 1036.35 1036.03 1035.77 1035.54 1035.23 1034.75 1034.17 1033.70 1033.14 1032.57 1032.19 1031.79 1031.52 1031.23 1030.99 1030.56 1030.04 1029.83 1030.08 1030.35 1030.31 1030.28 1030.18 1030.06 1029.81 1029.62 1029.56 1029.63 1029.57 1029.32
1039.48 1039.19 1038.98 1038.82 1038.72 1038.56 1038.25 1037.89 1037.57 1037.23 1036.84 1036.43 1036.16 1035.71 1035.24 1034.95 1034.67 1034.33 1033.81 1033.25 1032.70 1032.05 1031.50 1031.16 1030.91 1030.56 1030.13 1029.73 1029.63 1029.48 1029.40 1029.33 1029.53 1029.91 1029.94 1029.84 1029.68 1029.37 1029.41 1029.38 1029.23 1028.93 1028.61
1039.09 1038.89 1038.69 1038.46 1038.12 1037.78 1037.60 1037.42 1037.17 1036.91 1036.45 1036.04 1035.62 1035.12 1034.65 1034.29 1033.89 1033.52 1033.07 1032.58 1032.20 1031.65 1031.10 1030.56 1030.11 1029.70 1028.95 1028.62 1028.55 1028.76 1028.65 1028.88 1029.21 1029.42 1029.37 1029.16 1029.14 1029.22 1029.01 1028.89 1028.58 1028.41 1028.09
1038.89 1038.71 1038.51 1038.31 1038.09 1037.83 1037.61 1037.37 1037.02 1036.72 1036.36 1035.58 1034.98 1034.44 1033.81 1033.10 1032.75 1032.23 1031.61 1031.20 1031.12 1030.67 1030.16 1029.75 1029.26 1028.78 1028.47 1028.48 1028.30 1028.33 1028.61 1028.80 1028.92 1029.03 1029.05 1028.86 1028.59 1028.43 1028.31 1028.32 1028.17 1028.10 1027.83
1039.10 1038.78 1038.53 1038.23 1037.96 1037.64 1037.21 1036.77 1036.43 1035.84 1035.18 1034.47 1033.71 1033.12 1032.58 1031.88 1031.19 1030.59 1030.01 1029.37 1028.81 1028.30 1027.95 1027.83 1027.72 1027.54 1027.53 1027.41 1027.36 1027.71 1028.20 1028.45 1028.45 1028.44 1028.37 1028.20 1027.96 1027.84 1027.72 1027.76 1027.79 1027.57 1027.19
1039.08 1038.84 1038.46 1037.89 1037.48 1037.04 1036.68 1036.31 1035.72 1035.13 1034.74 1034.19 1033.52 1032.82 1032.12 1031.53 1030.88 1030.29 1029.58 1028.91 1028.33 1027.82 1027.50 1027.27 1027.04 1027.03 1027.11 1027.36 1027.71 1027.87 1027.78 1027.82 1027.96 1028.09 1027.98 1027.75 1027.65 1027.48 1027.29 1027.12 1027.10 1027.01 1026.62
1038.74 1038.26 1037.80 1037.40 1037.08 1036.69 1036.33 1035.92 1035.49 1034.93 1034.27 1033.58 1032.98 1032.68 1032.02 1031.13 1030.46 1029.88 1029.24 1028.53 1028.14 1027.90 1027.81 1027.68 1027.62 1027.63 1027.59 1027.58 1027.55 1027.43 1027.41 1027.44 1027.47 1027.49 1027.41 1027.29 1027.24 1027.16 1026.91 1026.73 1026.55 1026.33 1026.14
1038.43 1037.90 1037.46 1036.93 1036.45 1036.01 1035.52 1035.15 1034.74 1034.26 1033.75 1033.19 1032.52 1031.78 1031.55 1031.00 1030.34 1029.67 1029.13 1028.96 1028.58 1028.15 1027.89 1027.67 1027.48 1027.31 1027.15 1027.03 1026.89 1026.80 1026.75 1026.67 1026.64 1026.65 1026.61 1026.65 1026.68 1026.62 1026.28 1026.15 1025.89 1025.55 1025.21
1037.75 1037.09 1036.42 1035.91 1035.49 1035.05 1034.65 1034.25 1033.86 1033.45 1033.05 1032.66 1032.16 1031.62 1031.20 1030.77 1030.08 1029.48 1029.05 1028.66 1028.36 1028.01 1027.68 1027.36 1027.08 1026.85 1026.59 1026.46 1026.28 1026.14 1026.01 1025.96 1025.95 1026.00 1026.02 1026.01 1025.98 1025.89 1025.70 1025.49 1025.30 1024.98 1024.64
1037.12 1036.68 1036.14 1035.85 1035.40 1034.93 1034.48 1034.00 1033.53 1033.04 1032.55 1032.03 1031.52 1031.11 1030.46 1029.67 1029.16 1028.71 1028.32 1028.07 1027.69 1027.32 1027.08 1026.87 1026.59 1026.27 1026.02 1025.80 1025.65 1025.53 1025.44 1025.34 1025.35 1025.40 1025.37 1025.36 1025.38 1025.20 1025.11 1024.82 1024.45 1024.19 1023.86
1036.59 1036.33 1035.81 1035.30 1034.77 1034.33 1033.89 1033.27 1032.76 1032.38 1031.97 1031.57 1031.07 1030.66 1030.03 1029.47 1029.10 1028.63 1028.13 1027.64 1027.26 1026.91 1026.55 1026.21 1025.84 1025.52 1025.21 1025.00 1024.87 1024.75 1024.60 1024.48 1024.51 1024.48 1024.49 1024.54 1024.58 1024.49 1024.34 1024.09 1023.84 1023.44 1023.09
1036.44 1036.07 1035.61 1035.26 1034.90 1034.33 1033.78 1033.21 1032.70 1032.20 1031.70 1031.21 1030.62 1030.02 1029.51 1028.98 1028.41 1027.83 1027.30 1026.84 1026.50 1026.12 1025.79 1025.47 1025.07 1024.70 1024.40 1024.20 1024.07 1023.95 1023.84 1023.65 1023.56 1023.58 1023.53 1023.49 1023.50 1023.48 1023.32 1022.99 1022.74 1022.50 1022.12
1036.43 1036.08 1035.69 1035.26 1034.78 1033.98 1033.69 1033.09 1032.38 1031.92 1031.36 1030.79 1030.15 1029.52 1028.96 1028.42 1027.79 1027.19 1026.64 1026.10 1025.62 1025.12 1024.71 1024.36 1024.04 1023.73 1023.47 1023.32 1023.11 1022.96 1022.81 1022.70 1022.62 1022.49 1022.53 1022.41 1022.21 1022.16 1021.96 1021.64 1021.27 1020.93 1020.61
1036.37 1035.93 1035.49 1035.02 1034.57 1034.01 1033.43 1032.88 1032.23 1031.63 1031.02 1030.44 1029.79 1029.13 1028.47 1027.87 1027.20 1026.54 1025.90 1025.36 1024.87 1024.40 1023.90 1023.50 1023.12 1022.69 1022.39 1022.16 1021.99 1021.74 1021.49 1021.24 1021.06 1021.03 1021.13 1021.12 1021.01 1020.79 1020.49 1020.18 1019.81 1019.49 1019.33
1036.04 1035.65 1035.22 1034.80 1034.38 1033.87 1033.30 1032.69 1032.07 1031.34 1030.73 1030.06 1029.38 1028.73 1028.03 1027.28 1026.56 1025.81 1025.08 1024.45 1023.88 1023.31 1022.78 1022.24 1021.70 1021.32 1021.00 1020.74 1020.40 1020.18 1019.78 1019.37 1019.05 1018.80 1018.70 1018.76 1018.83 1018.39 1018.47 1018.40 1018.34 1018.23 1017.87
Thickness
5379 5379 5379 5381 5382 5384 5385 5386 5388 5390 5391 5392 5394 5396 5397 5399 5401 5404 5406 5406 5407 5408 5408 5408 5409 5409 5411 5413 5413 5416 5418 5421 5427 5438 5442 5445 5448 5452 5456 5459 5463 5468 5475
5365 5365 5366 5367 5368 5369 5370 5371 5372 5373 5374 5375 5376 5378 5379 5380 5382 5383 5386 5387 5387 5388 5387 5387 5388 5388 5390 5391 5392 5394 5397 5399 5402 5409 5414 5421 5425 5430 5435 5439 5445 5448 5451
5352 5353 5353 5353 5353 5354 5354 5355 5356 5357 5357 5358 5359 5359 5360 5360 5362 5363 5365 5367 5367 5367 5366 5366 5366 5366 5367 5368 5370 5372 5375 5377 5378 5382 5389 5393 5399 5404 5411 5414 5418 5424 5428
5337 5338 5338 5338 5338 5339 5339 5339 5339 5340 5340 5340 5340 5340 5340 5341 5342 5343 5345 5346 5346 5345 5343 5343 5343 5343 5343 5344 5345 5348 5349 5350 5354 5358 5364 5367 5370 5375 5377 5384 5392 5393 5401
5323 5324 5324 5323 5323 5323 5324 5324 5323 5323 5323 5323 5323 5323 5322 5322 5323 5323 5325 5327 5325 5322 5320 5319 5320 5318 5318 5317 5319 5320 5321 5325 5329 5331 5334 5337 5339 5339 5342 5347 5355 5365 5370
5310 5310 5310 5310 5310 5310 5309 5309 5308 5308 5307 5306 5305 5304 5302 5302 5303 5303 5304 5306 5305 5301 5299 5298 5296 5295 5294 5293 5292 5292 5294 5297 5297 5299 5302 5304 5305 5306 5311 5314 5316 5321 5332
5298 5298 5298 5297 5297 5296 5295 5294 5293 5292 5290 5289 5288 5286 5285 5283 5283 5282 5282 5284 5283 5279 5276 5274 5273 5270 5268 5266 5262 5264 5267 5267 5267 5269 5271 5271 5273 5273 5273 5275 5277 5283 5290
5285 5286 5285 5283 5282 5281 5279 5278 5276 5275 5274 5273 5271 5269 5267 5264 5262 5260 5259 5260 5260 5255 5251 5248 5247 5245 5240 5239 5236 5237 5238 5237 5236 5238 5240 5238 5237 5236 5236 5238 5244 5248 5255
5272 5272 5270 5269 5267 5266 5265 5263 5261 5259 5257 5255 5252 5249 5246 5243 5239 5236 5234 5234 5234 5231 5227 5224 5220 5219 5213 5212 5212 5211 5210 5210 5207 5208 5203 5199 5198 5197 5196 5199 5205 5208 5218
5261 5260 5258 5256 5254 5252 5249 5246 5243 5241 5238 5235 5232 5228 5225 5223 5216 5211 5207 5206 5208 5205 5202 5199 5195 5192 5188 5184 5183 5179 5180 5179 5178 5174 5168 5165 5164 5164 5161 5159 5163 5165 5169
5251 5248 5245 5241 5238 5234 5231 5227 5223 5220 5217 5213 5211 5206 5201 5195 5191 5184 5180 5179 5178 5177 5175 5171 5168 5164 5161 5158 5155 5152 5150 5148 5145 5142 5138 5138 5135 5133 5132 5129 5127 5125 5130
5235 5232 5228 5224 5219 5215 5211 5206 5201 5197 5194 5189 5185 5182 5175 5169 5164 5159 5153 5152 5150 5149 5149 5146 5144 5140 5136 5132 5130 5128 5123 5119 5115 5113 5112 5109 5106 5104 5101 5099 5096 5093 5091
5218 5214 5209 5204 5198 5192 5188 5183 5177 5171 5167 5163 5157 5153 5149 5142 5138 5132 5126 5126 5123 5120 5120 5119 5116 5114 5113 5110 5106 5100 5096 5092 5088 5083 5081 5078 5075 5074 5071 5068 5067 5065 5066
5201 5196 5190 5184 5178 5171 5165 5158 5151 5144 5139 5134 5128 5124 5121 5117 5111 5103 5101 5098 5094 5091 5090 5089 5087 5088 5089 5087 5083 5077 5072 5066 5059 5056 5056 5055 5050 5047 5046 5042 5044 5042 5043
5182 5175 5168 5161 5153 5146 5138 5130 5122 5115 5108 5104 5100 5095 5094 5095 5086 5079 5077 5076 5071 5068 5063 5063 5063 5064 5064 5062 5059 5057 5051 5045 5039 5036 5034 5033 5033 5030 5029 5023 5021 5019 5018
5158 5151 5144 5137 5129 5121 5114 5107 5095 5088 5084 5078 5074 5070 5068 5067 5065 5061 5058 5056 5055 5055 5050 5049 5049 5050 5049 5048 5046 5039 5032 5027 5024 5021 5019 5017 5016 5014 5011 5007 5001 4999 4999
5137 5129 5122 5114 5106 5098 5088 5080 5074 5063 5052 5046 5043 5041 5038 5037 5036 5034 5034 5034 5034 5033 5031 5033 5033 5028 5027 5023 5020 5017 5016 5011 5007 5003 5000 4999 4996 4994 4992 4990 4986 4981 4982
5119 5111 5104 5094 5083 5073 5062 5052 5043 5037 5033 5026 5018 5014 5014 5015 5014 5013 5012 5012 5014 5011 5007 5006 5006 5004 5002 5000 4999 4998 4997 4993 4990 4987 4985 4983 4979 4976 4976 4973 4970 4967 4963
5102 5094 5083 5073 5061 5051 5041 5032 5023 5017 5012 5008 5005 5000 4998 4999 4998 4997 4995 4991 4990 4991 4990 4989 4988 4988 4988 4986 4986 4984 4982 4981 4978 4975 4972 4969 4965 4961 4962 4959 4957 4956 4952
5087 5077 5069 5058 5047 5037 5028 5020 5014 5007 5002 4997 4993 4992 4989 4987 4986 4985 4983 4982 4980 4979 4978 4978 4977 4977 4976 4975 4974 4973 4972 4971 4968 4964 4960 4956 4954 4952 4950 4947 4943 4941 4938
5071 5059 5048 5036 5027 5020 5015 5010 5005 5000 4996 4992 4988 4984 4984 4985 4984 4981 4979 4975 4973 4972 4971 4970 4969 4969 4968 4967 4965 4964 4963 4961 4957 4953 4950 4946 4942 4939 4935 4934 4933 4930 4927
5058 5046 5036 5027 5018 5011 5008 5006 5002 4996 4992 4987 4984 4981 4979 4978 4975 4973 4971 4970 4968 4966 4965 4964 4964 4962 4961 4959 4957 4956 4955 4953 4949 4946 4943 4938 4934 4930 4928 4926 4923 4922 4921
5043 5032 5023 5014 5007 5003 4999 4997 4994 4990 4987 4984 4982 4980 4977 4974 4972 4970 4968 4966 4964 4963 4961 4960 4960 4959 4957 4956 4954 4952 4950 4948 4945 4941 4938 4935 4931 4928 4926 4925 4923 4920 4919
5033 5023 5014 5006 5000 4999 4994 4991 4989 4986 4983 4981 4979 4976 4974 4971 4969 4967 4965 4964 4963 4962 4960 4959 4958 4957 4955 4953 4951 4949 4947 4945 4943 4941 4938 4935 4933 4931 4929 4928 4927 4926 4924
5026 5017 5008 5001 4995 4991 4989 4986 4984 4983 4980 4977 4975 4973 4972 4970 4969 4967 4966 4965 4964 4962 4961 4960 4959 4959 4957 4956 4955 4953 4951 4948 4946 4944 4941 4938 4936 4935 4934 4933 4931 4930 4927
5022 5013 5005 4997 4990 4987 4984 4982 4980 4979 4977 4975 4974 4972 4971 4971 4970 4970 4969 4969 4969 4968 4967 4967 4967 4966 4964 4963 4962 4959 4957 4956 4954 4952 4950 4949 4946 4947 4942 4939 4936 4933 4931